map of BEL home
BEL - Airport
Location
City:  Belém, Pará, Brazil
Name:Belém International - Val-de-Căes
Old (Alt.):Júlio Cezar Ribeiro
ICAO:SBBE
IATA:BEL

Details
Type:Airport (Aerodrome, Airfield)
Use:Public/Civil, Military, International (customs port of entry)
Latitude:1°22'45"S (-1.379249)
Longitude:48°28'35"W (-48.476291)
Datum:WGS 1984
Elevation:54 ft (16 m)
Variation:20.16°W (WMM2015 magnetic declination)
-0.02° annual change
Runways:2
Longest:9180 × 148 ft (2798 × 45 m), paved

Time
Time Zone:UTC-3
Local Time:

Weather
METAR:SBBE 210700Z 07004KT CAVOK 25/23 Q1008
TAF:SBBE 210400Z 2106/2206 05005KT CAVOK TN24/2106Z TX31/2116Z
BECMG 2111/2113 08008KT SCT020
BECMG 2116/2118 36010KT SCT030 FEW035TCU
BECMG 2122/2124 06008KT CAVOK
RMK PEH

Related Locations
Nearby:
Farthest:WAJY: 12300 mi / 19795 km
Werur [Werur Airport], PB, ID

Find:

   beyond  
but within

Other Information
Maps:
NOTAMs:
Links:
Sources:

  
  • flag of Brazil
  • flag of Pará
  • flag of Belém
  

Sectional Chart

Flight Planning
at skyvector.com

Satellite Image

Google Maps Satellite view

 

Copyright © 2004-2018 Karl L. Swartz. All rights reserved.
The Great Circle Mapper name and logo are trademarks of the Great Circle Mapper.
All other trademarks mentioned herein belong to their respective owners.
Please see credits for attibutions and further copyright information.

  Follow gcmap on Facebook Follow gcmap on Twitter Follow gcmap on Google+ GCmap on LinkedIn

hCard Microformat

Geo Microformat